Location: Goll?ig?dem
(16.6773°N, 80.7332°E)
Time: 07:28:12
(UTC+00:00)

Cosmos 1470 - Pass Details

Date: 21 April 2021
Orbit: 519 x 543 km, 82.5° (Epoch: 05 May)

Event Time Altitude Azimuth Distance (km) Brightness Sun altitude
Rises 23:29:11 0° 337° (NNW) 2,638 6.2 -12.0°
Reaches altitude 10° 23:31:34 10° 324° (NW) 1,753 5.2 -11.4°
Maximum altitude 23:34:45 25° 268° (W) 1,080 3.7 -10.7°
Drops below altitude 10° 23:37:57 10° 212° (SSW) 1,759 5.0 -9.9°
Sets 23:40:21 0° 199° (SSW) 2,650 6.0 -9.4°
